Regional Weather Roundup
Issued by NWS

Home | Current Version | Previous Version | Text Only | Print | Product List | Glossary On
Versions: 1 2 3 4 5 6 7 8 9 10 11 12 13 14 15 16 17 18 19 20 21 22 23 24 25 26 27 28 29 30 31 32 33 34 35 36 37 38 39 40 41 42 43 44 45 46 47 48 49 50
000
ASHW40 PHFO 231810
RWRHI

WEATHER ROUNDUP FOR HAWAII
NATIONAL WEATHER SERVICE HONOLULU HI
800 AM HST WED JUL 23 2014

THIS IS AN AUTOMATED REPORT THAT HAS NOT BEEN QUALITY CONTROLLED.

NOTE..."FAIR" INDICATES FEW OR NO CLOUDS BELOW 12,000 FEET WITH NO
SIGNIFICANT WEATHER AND/OR OBSTRUCTIONS TO VISIBILITY.

* - THESE SITES REPORT LIMITED FIELDS

HIZ001>004-231900-
KAUAI-NIIHAU-

CITY           SKY/WX    TMP DP  RH WIND       PRES   REMARKS
LIHUE APT      FAIR      80  71  74 NE16      30.09R
PORT ALLEN*      N/A     79 N/A N/A E16         N/A
POIPU*           N/A     79 N/A N/A NE9G17      N/A
PRINCEVILLE*   NOT AVBL
KOKOLE POINT*  NOT AVBL
MOLOAA DAIRY*  NOT AVBL
WAIMEA HTS*    NOT AVBL
PUU OPAE*      NOT AVBL
PUU LUA*       NOT AVBL
MAKAHA RIDGE*  NOT AVBL
$$

HIZ005>011-231900-
OAHU-

CITY           SKY/WX    TMP DP  RH WIND       PRES   REMARKS
HONOLULU       FAIR      81  66  60 E14G23    30.04R
KALAELOA       FAIR      82  67  60 VRB3      30.05R
KANEOHE MCB    CLOUDY    77  66  68 E8        30.07R
WHEELER FIELD  CLOUDY    75  67  75 NE6       30.07R
BELLOWS*       NOT AVBL
KAHUKU*        NOT AVBL
WHEELER*       NOT AVBL
WAIANAE HARBOR NOT AVBL
DILLINGHAM*      N/A     81  70  69 E3          N/A
KAHUKU TRN*      N/A     79  70  73 E14G25      N/A
KAWAILOA*      NOT AVBL
KII*             N/A     79  72  78 CALM        N/A
MAKUA RANGE*     N/A     82  66  57 E9G22       N/A
OAHU FOREST NW NOT AVBL
SCHOFIELD BRK*   N/A     75  66  73 MISG        N/A
SCHOFIELD S*   NOT AVBL
WAIANAE VLY*   NOT AVBL
KUAOKALA*      NOT AVBL
HONOULIUULI*   NOT AVBL
MOKUOLOE IS*     N/A    N/A N/A N/A MISG        N/A
PALEHUA*       NOT AVBL
WAIAWA PHB*    NOT AVBL
$$

HIZ012>013-231900-
MOLOKAI-

CITY           SKY/WX    TMP DP  RH WIND       PRES   REMARKS
MOLOKAI AIRPT  FAIR      79  70  74 NE15G23   30.06R
KALAUPAPA      NOT AVBL
MAKAPULAPAI*   NOT AVBL
MOLOKAI 1*     NOT AVBL
PUU ALII*      NOT AVBL
$$

HIZ016-231900-
KAHOOLAWE-

CITY           SKY/WX    TMP DP  RH WIND       PRES   REMARKS
KAHOOLAWE*     NOT AVBL
HAKIOAWA*      NOT AVBL
HONOKANAIA*      N/A     81  68  63 NE12G26   30.04R
KANELOA*         N/A     75  68  78 E15G29    30.14R
KEALIALALO*    NOT AVBL
LUA MAKIKA*    NOT AVBL
$$

HIZ014>015-231900-
LANAI-

CITY           SKY/WX    TMP DP  RH WIND       PRES   REMARKS
LANAI CITY     FAIR      76  66  71 NE16      30.10R
LANAI 1*       NOT AVBL
$$

HIZ017>028-231900-
MAUI-

CITY           SKY/WX    TMP DP  RH WIND       PRES   REMARKS
KAHULUI        FAIR      81  66  60 NE13      30.05R
KAPALUA-W MAUI MOSUNNY   79  64  61 E14G24    30.05
HANA AIRPORT   MOSUNNY   81  68  65 E2        30.11R
HANA*          NOT AVBL
HALEAKALA SUMM   N/A     54  16  22 NE16        N/A
MAALAEA BAY*   NOT AVBL
HALEAKALA*     NOT AVBL
KAUPO GAP*     NOT AVBL
KULA 1*          N/A     58  41  53 E3          N/A
$$

HIZ023>026-231900-
BIG ISLAND OF HAWAII COAST AND LOWER SLOPES-

CITY           SKY/WX    TMP DP  RH WIND       PRES   REMARKS
KAILUA KONA    FAIR      81  74  79 SE7       29.98R
HILO           LGT RAIN  76  71  85 NW5       30.06R
HONOKAA*       NOT AVBL
KAWAIHAE MWT*  NOT AVBL
KAWAIHAE*        N/A     81 N/A N/A SW3         N/A
SOUTH POINT*   NOT AVBL
UPOLU AIRPORT* NOT AVBL
KAMUELA*       MOCLDY    66  63  88 NE24      30.13S
HAKALAU*         N/A     58  57  98 NE2         N/A
KALOKO-HONOKO* NOT AVBL
PALI 2*          N/A     70  64  83 NE17G28     N/A
KEALAKOMO*       N/A     77  70  78 NE13        N/A
KAUPULEHU*     NOT AVBL
KAPAPALA*        N/A     71  68  89 E2G9        N/A
LOWER KAHUKU*  NOT AVBL
PUHE CS*       NOT AVBL
PUHO CS*       NOT AVBL
PTA KEAMUKU*     N/A     66  61  82 NE13G20     N/A
WAIKOLOA*      NOT AVBL
$$

HIZ027>028-231900-
BIG ISLAND OF HAWAII INTERIOR AND SUMMMITS-

CITY           SKY/WX    TMP DP  RH WIND       PRES   REMARKS
BRADSHAW FIELD FAIR      63  56  76 SE10G16   30.36R
MK VISITOR CEN NOT AVBL
MAUNA KEA*       N/A     43  16  33 E13         N/A
MAUNA LOA*       N/A    N/A N/A N/A MISG        N/A
MAUNA LOA 1*   NOT AVBL
PTA KIPUKA*      N/A     64  59  82 SW3         N/A
PTA RANGE 17*    N/A     64  57  77 E12G18      N/A
PTA WEST*        N/A     66  63  88 NE2         N/A
NENE CABIN*    NOT AVBL
AHUMOA*        NOT AVBL
PTA PORTABLE*  NOT AVBL
PUU MALI*      NOT AVBL
$$

HIC003-231900-
NORTHWEST ISLANDS-

CITY           SKY/WX    TMP DP  RH WIND       PRES   REMARKS
MIDWAY ISLAND  MOSUNNY   81  72  74 E9        30.11R
MIDWAY NOS*    NOT AVBL
FRENCH FRIGATE NOT AVBL
$$

PHZ110>124-180-231900-
BUOY REPORTS

STATION/POSITION TIME  TEMP    WIND        PRES    WAVE   SWELL
                       AIR SEA DIR/SP/G            HT/PER HT/DIR
                 (UTC) (F)     (DEG/KT/KT) (MB)    (FT/S) (FT/D)
BUOY 51001       NOT AVBL
BUOY 51101       1800   80 80  110/ 14/ 16 1018.7R   6/ 8   5/110
BUOY 51100       1800   77      60/ 17     1019.6R
BUOY 51003       1700   80 81   40/  6/  8 1015.8R   6/ 8   7
BUOY 51004       1726   79 79   70/ 17/ 21 1015.4R   7/ 8   5/ 80
BARBERS PT BUOY  NOT AVBL
WAIMEA BAY BUOY  1800      80                N/A     4/ 8
KAILUA BAY BUOY  1800      80                N/A     6/ 7
LANAI BUOY       1800      80                N/A     3/ 9   2/190
BARBERS PT 2     1800      81                N/A     3/ 9   2/190
PAUWELA MAUI     1800      79                N/A     6/ 8
HILO             NOT AVBL
KANEOHE BAY BUOY 1800      79                N/A     5/ 8
HANALEI KAUAI    NOT AVBL
KAHULUI HARBOR   1800   78 80   30/  9/ 13 1017.6S
HONOLULU HARBOR  1800   81     100/  3/ 12 1017.5R
KILO NALU        NOT AVBL
HILO HARBOR      1800   74     200/  2/  3 1017.5R
MOKUOLOE         1800      82              1018.5R
NAWILIWILI       1800      81                N/A
WHOTS BUOY       NOT AVBL
BUOY 51028       NOT AVBL
$$

......................KEY........................................
  SKY/WX - SKY CONDITIONS/PRESENT WEATHER
  TMP    - TEMPERATURE IN FAHRENHEIT
  DWPT   - DEWPOINT IN FAHRENHEIT
  RH     - RELATIVE HUMIDITY IN PERCENT
  WIND   - DIRECTION AND SPEED /MPH FOR ISLANDS...KTS FOR BUOYS/
  PRES   - MEAN SEA LEVEL PRESSURE IN INCHES OF HG
  VSB    - VISIBILITY IN MILES
  HX     - HEAT INDEX
  WCI    - WIND CHILL INDEX
  VRB    - VARIABLE WIND DIRECTION
  N/A    - NOT AVAILABLE



USA.gov is the U.S. government's official web portal to all federal, state and local government web resources and services.